Погода в Токуре

Россия / Амурская область     53°08′14″N   132°53′17″E
темп.,
°C
ветер,
м/с
пор.,
м/с
влажн.,
%
обл.,
%
осадки,
мм/ч
давл.,
гПа
погр.,
м
4 июля, пн
пн400:00+16юв119088 0.0 100412
03:00+15юв119355 0.0 100511
06:00+18юв117652 0.0 1005106
09:00+25ююв115062 0.0 1004820
12:00+29ю113789 0.0 10042166
15:00+26ссв1145100 0.0 10031111
18:00+22ссв1263100 0.3 1004212
21:00+19юв1179100 0.3 100612
5 июля, вт
вт500:00+17вюв118584 0.0 100611
03:00+16юв119333 0.2 100712
06:00+19юв128116 0.0 1007105
09:00+26ююв11525 0.0 1006816
12:00+30ююв22376 0.0 10052160
15:00+30юв213421 0.0 10042336
18:00+20зсз128228 0.9 100686
21:00+19ю118572 0.9 100714
6 июля, ср
ср600:00+18ююз118410 0.0 100817
03:00+17ююв118793 0.0 100917
06:00+20ююв12773 0.0 100998
09:00+24юз12720 0.9 1009440
12:00+28ююв125299 1.6 10081197
15:00+28ю1346100 1.8 10061258
18:00+24ююз116775 0.0 100718
21:00+22ю22687 0.0 100725
7 июля, чт
чт700:00+18юв11850 0.0 100714
03:00+17юв21920 0.0 100717
06:00+20юв22780 0.0 1006142
09:00+26ююв35520 0.0 10041380
12:00+29ююв364195 0.0 10012316
15:00+27ююв4851100 0.0 10001231
18:00+26ю41053100 0.0 9991850
21:00+18юз2698100 0.8 1001405
8 июля, пт
пт800:00+16ююз2799100 4.1 1002526
03:00+15ююз2298100 4.7 100162
06:00+16ююз229512 0.0 1002176
09:00+22юз22590 0.0 1001836
12:00+26ююз344131 0.0 9992214
15:00+28юз463364 0.0 9982885
18:00+25юз4746100 0.0 9991397
21:00+19ююв2269100 0.0 100025